Tracking 28794 objects as of 20-Apr-2024
HD Live streaming from Space Station
objects crossing your sky now

SL-14 DEB

Track SL-14 DEB now!
10-day predictions


NORAD ID: 29065
Int'l Code: 1978-100AX
Perigee: 1,674.8 km
Apogee: 1,711.9 km
Inclination: 82.5 °
Period: 120.1 minutes
Semi major axis: 8064 km
RCS: 0.015 m2 (small)
Launch date: October 26, 1978
Source: Commonwealth of Independent States (former USSR) (CIS)
Launch site: PLESETSK MISSILE AND SPACE COMPLEX (PKMTR)

Note: This is SATELLITE DEBRIS
Your satellite tracking list
Your tracking list is empty




NASA's NSSDC Master Catalog

Two Line Element Set (TLE):
1 29065U 78100AX  24110.93538671  .00000207  00000-0  24908-2 0  9992
2 29065  82.5350  94.9293 0023026  36.1243 352.1690 11.98805365484711
Source of the keplerian elements: AFSPC